[[{"header":{"parameterUnit":"m.s-1","parameterCategory":1,"la1":30.2991,"la2":30.254,"lo1":-89.0895,"lo2":-89.0444,"dy":0.0017,"dx":0.0017,"nx":28,"ny":28,"refTime":"2024-04-21T03:00:00:Z","depth":0,"parameterNumber":2,"parameterNumberName":"U-component_of_WINDS"},"data":[0,0,0,0,0,0,0,0,0,0,0,0,0,0,0,0,0,0,0,0,0,0,0,0,0,0,0,0,0,0,0,0,0,0,0,0,0,0,0,0,0,0,0,0,0,0,0,0,0,0,0,0,0,0,0,0,0,0,-0.9709,-0.971,0,-0.9795,-0.9796,-0.9797,-0.9755,-0.9753,-0.975,-0.9748,-0.9838,-0.9843,-0.9847,0,0,0,0,0,0,0,0,0,0,0,0,0,-0.9508,-0.9511,-0.9708,-0.971,-0.9711,-0.9795,-0.9796,-0.9797,-0.9755,-0.9753,-0.975,-0.9747,-0.9837,-0.9842,-0.9848,0,0,0,0,0,0,0,0,0,0,0,0,0,-0.9595,-0.9513,-0.9708,-0.97,-0.97,-0.9795,-0.9796,-0.9798,-0.9756,-0.9753,-0.9749,-0.9746,-0.9835,-0.9842,-0.9848,-0.9957,0,0,-0.9869,-0.9872,0,0,0,0,0,0,0,0,-0.959,-0.9602,-0.97,-0.9701,-0.9701,-0.9761,-0.9758,-0.9851,-0.9757,-0.9735,-0.9748,-0.9744,-0.9815,-0.9823,-0.9847,-0.9961,-0.9965,-0.9869,-0.9874,-0.9876,-0.9878,0,0,0,0,0,0,0,-0.9584,-0.9598,-0.9743,-0.9701,-0.9702,-0.9692,-0.9701,-0.9776,-0.9793,-0.9736,-0.9734,-0.9744,-0.9815,-0.9841,-0.9849,-0.9966,-0.9869,-0.9875,-0.9879,-0.9882,-1.0174,-1.0177,0,0,0,0,0,0,-0.9578,-0.9593,-0.974,-0.9745,-0.9636,-0.9698,-0.9708,-0.9745,-0.9792,-0.9796,-0.9747,-0.9742,-0.9831,-0.9841,-0.9852,-0.9983,-0.9876,-0.9883,-0.9887,-1.017,-1.0175,-1.0179,0,0,0,0,0,0,-0.9574,-0.9591,-0.9737,-0.9669,-0.9686,-0.9705,-0.9747,-0.9748,-0.9774,-0.98,-0.9803,-0.977,-0.9829,-0.9842,-0.9931,-0.9986,-0.9886,-0.9892,-1.0166,-1.0172,-1.0177,-1.0247,0,0,0,0,0,0,-0.9568,-0.959,-0.9632,-0.967,-0.969,-0.9815,-0.975,-0.9753,-0.9786,-0.978,-0.9823,-0.9826,-0.9827,-0.9921,-0.9938,-0.9993,-0.9897,-1.0161,-1.0168,-1.0175,-1.024,-1.0254,-1.0266,0,0,0,0,0,-0.9561,-0.9648,-0.9634,-0.9652,-0.9742,-0.9818,-0.9829,-0.9828,-0.979,-0.9833,-0.9849,-0.9825,-0.9976,-0.9931,-0.9949,-1.0007,-1.0158,-1.0166,-1.0174,-1.0234,-1.0251,-1.0266,0,0,0,0,0,0,-0.9617,-0.9653,-0.9638,-0.974,-0.9776,-0.9811,-0.9864,-0.9847,-0.9895,-0.9888,-0.9884,-0.9894,-0.9986,-1.0005,-0.9953,-1.0115,-1.0061,-1.0074,-1.01,-1.0117,-1.013,-1.0125,-0.9903,0,0,0,0,0,-0.9641,-0.9698,-0.9727,-0.9814,-0.9833,-0.9845,-0.9878,-0.9874,-0.9911,-0.9927,-0.9949,-0.9987,-1.0043,-1.008,-1.0133,-1.0241,-1.025,-1.029,-1.0303,-1.0314,-1.0325,-1.0385,-1.0403,-1.0206,-1.0206,-1.0206,0,0,-0.9691,-0.9718,-0.9755,-0.9826,-0.9854,-0.9914,-0.9859,-0.9925,-0.997,-0.9937,-1.0023,-1.004,-1.0082,-1.0181,-1.0225,-1.0199,-1.0381,-1.0324,-1.0333,-1.0339,-1.0395,-1.0414,-1.043,-1.0212,-1.0211,-1.021,0,0,-0.9815,-0.984,-0.9916,-0.9945,-0.9987,-0.9994,-1.0012,-1.0049,-1.006,-1.0145,-1.0121,-1.0174,-1.0271,-1.0302,-1.033,-1.0464,-1.0444,-1.0481,-1.0552,-1.0609,-1.0625,-1.0639,-1.0688,-1.0706,-1.0492,-1.0492,-1.0492,0,-0.9873,-0.9963,-0.9957,-1.0026,-1.0058,-1.0029,-1.0107,-1.0134,-1.0192,-1.0215,-1.0184,-1.0305,-1.033,-1.0437,-1.0469,-1.0492,-1.0514,-1.0478,-1.0623,-1.0637,-1.0649,-1.0697,-1.0715,-1.0496,-1.0496,-1.0495,-1.0495,0,-1.0033,-1.0096,-1.0152,-1.0208,-1.0246,-1.0319,-1.0324,-1.0363,-1.0355,-1.0365,-1.0453,-1.0482,-1.0541,-1.0565,-1.0558,-1.067,-1.0653,-1.0623,-1.0569,-1.0673,-1.0717,-1.0735,-1.0502,-1.0501,-1.05,-1.0499,0,0,-1.0198,-1.0248,-1.0269,-1.0295,-1.0338,-1.0387,-1.0457,-1.0514,-1.0549,-1.0588,-1.0648,-1.0729,-1.0701,-1.0734,-1.0729,-1.0779,-1.0885,-1.0742,-1.0743,-1.077,-1.1013,-1.1038,-1.1059,-1.087,-1.0874,-1.0876,-1.101,0,-1.0327,-1.0451,-1.0447,-1.0563,-1.0622,-1.0594,-1.0655,-1.0689,-1.07,-1.0751,-1.0763,-1.0822,-1.0779,-1.0798,-1.0846,-1.0862,-1.0934,-1.0852,-1.0928,-1.0931,-1.0922,-1.1081,-1.1108,-1.1233,-1.1027,-1.103,-1.1032,0,-1.0494,-1.054,-1.0662,-1.0696,-1.0721,-1.0776,-1.0828,-1.0877,-1.0914,-1.0918,-1.0953,-1.094,-1.1012,-1.0954,-1.1053,-1.0998,-1.1028,-1.104,-1.1045,-1.1054,-1.099,-1.1098,-1.1272,-1.1292,-1.1059,-1.1057,-1.1055,0,-1.0605,-1.0696,-1.0781,-1.0803,-1.0845,-1.0885,-1.0904,-1.0938,-1.0972,-1.1017,-1.1039,-1.1091,-1.1121,-1.1162,-1.1163,-1.112,-1.1264,-1.1206,-1.1271,-1.1272,-1.1306,-1.1304,-1.149,-1.132,-1.132,-1.132,-1.1319,0,-1.0752,-1.0828,-1.0832,-1.0885,-1.0969,-1.0963,-1.1047,-1.1062,-1.1092,-1.1147,-1.1125,-1.1177,-1.1174,-1.1227,-1.1228,-1.1311,-1.1324,-1.133,-1.133,-1.1334,-1.1334,-1.1357,-1.1349,-1.1325,-1.1324,-1.1323,-1.1322,0,-1.0892,-1.0897,-1.0988,-1.102,-1.1029,-1.109,-1.1117,-1.1168,-1.1175,-1.1245,-1.1261,-1.1274,-1.1335,-1.1339,-1.141,-1.141,-1.1512,-1.1501,-1.15,-1.15,-1.1566,-1.156,-1.1775,-1.1804,-1.1613,-1.1614,-1.1616,0,-1.0987,-1.1045,-1.1082,-1.1117,-1.1139,-1.1196,-1.123,-1.1226,-1.1263,-1.1309,-1.1353,-1.1412,-1.1459,-1.1558,-1.1574,-1.1627,-1.1619,-1.169,-1.1627,-1.1629,-1.1623,-1.1621,-1.1628,-1.1704,-1.1706,-1.1708,-1.1709,0,-1.1155,-1.1154,-1.1205,-1.1257,-1.1299,-1.1339,-1.1377,-1.1407,-1.1407,-1.145,-1.1512,-1.1548,-1.1619,-1.1679,-1.1731,-1.175,-1.1731,-1.1728,-1.1747,-1.1753,-1.1752,-1.1756,-1.1537,-1.1724,-1.1723,-1.1722,-1.1721,-1.172,-1.1277,-1.1328,-1.1362,-1.1419,-1.1447,-1.1482,-1.1531,-1.1545,-1.1596,-1.1654,-1.1647,-1.1717,-1.1751,-1.1819,-1.1842,-1.1896,-1.1872,-1.1899,-1.1906,-1.1913,-1.1921,-1.174,-1.1905,-1.1905,-1.1905,-1.1904,-1.1904,0,-1.1447,-1.1467,-1.1519,-1.1573,-1.1618,-1.1593,-1.1633,-1.1673,-1.1734,-1.1767,-1.1814,-1.1885,-1.1941,-1.1961,-1.2016,-1.2055,-1.2048,-1.207,-1.2069,-1.2074,-1.1939,-1.1918,-1.2075,-1.2075,-1.2075,-1.2075,-1.2075,-1.2075,-1.154,-1.1625,-1.1628,-1.1726,-1.1746,-1.1813,-1.1839,-1.1871,-1.1898,-1.1979,-1.2026,-1.2037,-1.2065,-1.2121,-1.2172,-1.2176,-1.2199,-1.2226,-1.2226,-1.21,-1.2083,-1.2067,-1.2048,-1.223,-1.223,-1.2357,-1.2359,-1.236]},{"header":{"parameterUnit":"m.s-1","parameterCategory":1,"la1":30.2991,"la2":30.254,"lo1":-89.0895,"lo2":-89.0444,"dy":0.0017,"dx":0.0017,"nx":28,"ny":28,"refTime":"2024-04-21T03:00:00:Z","depth":0,"parameterNumber":3,"parameterNumberName":"V-component_of_WINDS"},"data":[0,0,0,0,0,0,0,0,0,0,0,0,0,0,0,0,0,0,0,0,0,0,0,0,0,0,0,0,0,0,0,0,0,0,0,0,0,0,0,0,0,0,0,0,0,0,0,0,0,0,0,0,0,0,0,0,0,0,-6.9416,-6.9418,0,-6.964,-6.9643,-6.9645,-6.9578,-6.9574,-6.9569,-6.9565,-6.9791,-6.9801,-6.9811,0,0,0,0,0,0,0,0,0,0,0,0,0,-6.8926,-6.8935,-6.9415,-6.9418,-6.9421,-6.964,-6.9643,-6.9646,-6.9579,-6.9573,-6.9568,-6.9562,-6.9788,-6.98,-6.9812,0,0,0,0,0,0,0,0,0,0,0,0,0,-6.9143,-6.8938,-6.9415,-6.9414,-6.9416,-6.9639,-6.9643,-6.9647,-6.958,-6.9573,-6.9566,-6.956,-6.9783,-6.9799,-6.9814,-7.005,0,0,-6.9861,-6.9868,0,0,0,0,0,0,0,0,-6.9131,-6.9161,-6.9412,-6.9415,-6.9418,-6.9574,-6.9553,-6.9782,-6.9582,-6.9518,-6.9564,-6.9556,-6.9724,-6.9744,-6.9801,-7.006,-7.007,-6.9863,-6.9872,-6.9879,-6.9883,0,0,0,0,0,0,0,-6.9116,-6.9151,-6.9504,-6.9415,-6.9419,-6.9402,-6.9425,-6.9596,-6.9657,-6.9523,-6.9519,-6.9546,-6.9724,-6.9787,-6.9806,-7.0073,-6.9862,-6.9876,-6.9886,-6.9892,-7.0537,-7.0544,0,0,0,0,0,0,-6.9099,-6.9139,-6.9497,-6.9511,-6.9254,-6.9416,-6.9442,-6.9531,-6.9655,-6.9668,-6.9552,-6.9542,-6.9764,-6.9788,-6.9814,-7.0099,-6.9879,-6.9893,-6.9902,-7.0529,-7.0538,-7.0547,0,0,0,0,0,0,-6.9089,-6.9132,-6.9488,-6.9324,-6.9368,-6.9432,-6.9532,-6.9539,-6.9601,-6.9677,-6.9688,-6.9605,-6.9759,-6.9792,-6.9992,-7.0106,-6.99,-6.9914,-7.052,-7.0532,-7.0543,-7.067,0,0,0,0,0,0,-6.9075,-6.9128,-6.922,-6.9327,-6.9377,-6.9664,-6.9539,-6.9548,-6.9629,-6.9618,-6.973,-6.9741,-6.9756,-6.9969,-7.0007,-7.0123,-6.9927,-7.051,-7.0525,-7.0539,-7.0656,-7.0685,-7.0709,0,0,0,0,0,-6.9058,-6.9246,-6.9225,-6.9268,-6.9492,-6.967,-6.9699,-6.9713,-6.9638,-6.973,-6.9779,-6.9738,-7.0087,-6.999,-7.0033,-7.0155,-7.0503,-7.0521,-7.0538,-7.0644,-7.0679,-7.0709,0,0,0,0,0,0,-6.9149,-6.926,-6.9237,-6.9466,-6.9559,-6.9659,-6.9775,-6.975,-6.9866,-6.9851,-6.9863,-6.9888,-7.0093,-7.0144,-7.0034,-7.039,-7.0284,-7.031,-7.035,-7.0384,-7.041,-7.0394,-6.994,0,0,0,0,0,-6.9196,-6.9333,-6.9421,-6.9614,-6.9662,-6.9711,-6.9789,-6.9792,-6.9889,-6.9927,-6.9991,-7.0086,-7.0216,-7.0302,-7.0427,-7.0662,-7.0686,-7.0768,-7.0794,-7.0816,-7.0839,-7.0967,-7.1005,-7.0605,-7.0604,-7.0604,0,0,-6.9294,-6.9371,-6.9456,-6.9634,-6.9707,-6.9847,-6.9744,-6.9897,-7.0001,-6.995,-7.0143,-7.0193,-7.0299,-7.0518,-7.0618,-7.0567,-7.0955,-7.0838,-7.0855,-7.0867,-7.0989,-7.1027,-7.1061,-7.0616,-7.0614,-7.0612,0,0,-6.9544,-6.9616,-6.9785,-6.9861,-6.9973,-7.0004,-7.0045,-7.0149,-7.018,-7.0374,-7.034,-7.0462,-7.0688,-7.0765,-7.0834,-7.1114,-7.108,-7.1154,-7.1293,-7.1418,-7.145,-7.1478,-7.1578,-7.1614,-7.1176,-7.1177,-7.1177,0,-6.9652,-6.9863,-6.9875,-7.0031,-7.011,-7.0072,-7.0243,-7.0315,-7.0462,-7.0517,-7.0457,-7.074,-7.0809,-7.1045,-7.1114,-7.117,-7.1217,-7.1142,-7.1444,-7.1473,-7.1499,-7.1595,-7.1633,-7.1185,-7.1184,-7.1183,-7.1183,0,-6.9989,-7.0136,-7.0259,-7.0403,-7.0496,-7.0659,-7.0695,-7.0787,-7.0781,-7.0819,-7.1017,-7.1098,-7.1238,-7.1294,-7.129,-7.1531,-7.1496,-7.1441,-7.1334,-7.1545,-7.1636,-7.1672,-7.1197,-7.1194,-7.1192,-7.1189,0,0,-7.0304,-7.0454,-7.0499,-7.0564,-7.0685,-7.0798,-7.0958,-7.1097,-7.1176,-7.1278,-7.1413,-7.1605,-7.1555,-7.1633,-7.1637,-7.1747,-7.1964,-7.1678,-7.168,-7.1729,-7.2234,-7.2276,-7.2318,-7.1942,-7.1949,-7.1955,-7.2226,0,-7.0566,-7.085,-7.0865,-7.1123,-7.1258,-7.1224,-7.1364,-7.1452,-7.1491,-7.1611,-7.1652,-7.1789,-7.1712,-7.1759,-7.1866,-7.1915,-7.2065,-7.1895,-7.2067,-7.2073,-7.2043,-7.2365,-7.241,-7.2662,-7.2261,-7.2267,-7.2271,0,-7.0909,-7.1023,-7.1295,-7.1397,-7.1454,-7.158,-7.1709,-7.1824,-7.1923,-7.1944,-7.2032,-7.202,-7.2183,-7.2071,-7.2296,-7.218,-7.225,-7.2285,-7.2295,-7.2312,-7.2186,-7.2392,-7.2742,-7.2781,-7.2327,-7.2322,-7.2318,0,-7.1112,-7.1334,-7.1525,-7.1582,-7.1706,-7.1795,-7.185,-7.1943,-7.2026,-7.2137,-7.2191,-7.232,-7.2391,-7.249,-7.2513,-7.2429,-7.2739,-7.2628,-7.276,-7.276,-7.2827,-7.2823,-7.3195,-7.2872,-7.2871,-7.287,-7.2869,0,-7.1403,-7.1571,-7.1619,-7.1736,-7.1923,-7.1938,-7.2122,-7.2171,-7.2254,-7.238,-7.2357,-7.2475,-7.2498,-7.2621,-7.264,-7.2824,-7.2856,-7.2876,-7.2879,-7.2879,-7.2877,-7.2926,-7.291,-7.288,-7.2878,-7.2876,-7.2874,0,-7.1662,-7.1701,-7.1908,-7.2008,-7.2037,-7.217,-7.2256,-7.2368,-7.2404,-7.2564,-7.2602,-7.2658,-7.2802,-7.2834,-7.3004,-7.3017,-7.3235,-7.3221,-7.3202,-7.3201,-7.3332,-7.332,-7.375,-7.3807,-7.3445,-7.3449,-7.3452,0,-7.1846,-7.1974,-7.2089,-7.2173,-7.2233,-7.2367,-7.2452,-7.2471,-7.256,-7.2683,-7.2781,-7.2922,-7.3037,-7.3267,-7.3322,-7.3452,-7.3441,-7.3583,-7.3461,-7.3457,-7.3445,-7.3437,-7.345,-7.3607,-7.3611,-7.3614,-7.3616,0,-7.2168,-7.2181,-7.2305,-7.2436,-7.2538,-7.2641,-7.274,-7.2809,-7.2842,-7.2943,-7.3091,-7.3179,-7.3354,-7.3494,-7.3625,-7.368,-7.3655,-7.3654,-7.3692,-7.3693,-7.3678,-7.3689,-7.3267,-7.3644,-7.3642,-7.364,-7.3638,-7.3637,-7.2396,-7.2509,-7.2607,-7.2746,-7.2822,-7.2915,-7.3026,-7.3077,-7.32,-7.3345,-7.3348,-7.3509,-7.3605,-7.3778,-7.3841,-7.3966,-7.3922,-7.3976,-7.399,-7.4004,-7.4016,-7.3657,-7.399,-7.3989,-7.3988,-7.3988,-7.3987,0,-7.2717,-7.2779,-7.2906,-7.3046,-7.3155,-7.3122,-7.323,-7.3323,-7.3465,-7.3557,-7.367,-7.384,-7.3976,-7.4042,-7.4176,-7.4264,-7.4255,-7.4298,-7.4292,-7.4306,-7.4047,-7.4002,-7.4303,-7.4303,-7.4303,-7.4303,-7.4303,-7.4303,-7.2897,-7.3087,-7.3112,-7.3338,-7.3398,-7.3557,-7.3622,-7.3707,-7.3781,-7.3971,-7.4085,-7.4127,-7.4209,-7.4349,-7.4472,-7.4488,-7.4539,-7.4588,-7.4598,-7.4356,-7.4324,-7.4293,-7.4251,-7.4599,-7.4599,-7.4846,-7.4848,-7.485]}]]